User: anonymous   Login
Location: Edemissen
(51.7689°N, 9.8634°E)
Time: 22:18:24
(UTC+00:00)
Language:

STARLINK-5843 - Orbit

View from above orbital plane
View from above orbital plane
View from above satellite
View from above satellite

Ground track
Ground track

The orbit data is extracted from the following two-line orbital elements,

1 57072U 23088AA  25321.47197719  .00008209  00000-0  61883-3 0  9998
2 57072  43.0048 344.7135 0001380 272.7149  87.3535 15.02731580132653
Epoch (UTC): 17 November 2025 11:19:38
Eccentricity: 0.0001380
inclination: 43.0048°
perigee height: 557 km
apogee height: 559 km
right ascension of ascending node: 344.7135°
argument of perigee: 272.7149°
revolutions per day: 15.02731580
mean anomaly at epoch: 87.3535°
orbit number at epoch: 13265

The dashed part of the orbit path shows where the satellite is in the earth's shadow,  

DLR